Voltar ao catálogo

STARLINK-34390

AtivoComunicaçõesVLEO
NORAD 64666·PAYLOAD·🇺🇸 United States

Lançado Jun 28, 2025 de Cape Canaveral Space Force Station

Loading…

Próximas Passagens (próximas 24 horas)

TLE

AtualizadoSource: CelesTrak SupGP

Época: Sep 15, 2026, 02:47 UTC

1 64666C 25139C   26258.11645833  .00053749  00000+0  15881-2 0  2582
2 64666  53.1580 322.6856 0001142  93.4356 117.2871 15.34362547    10

Acompanhe STARLINK-34390 em tempo real com AllMySat

Download on the App Store